VENTA 1 (42791 NORAD) Tracking and Keplerian Element Data

This shows tracking and keplerian element data for the satellite.

Feedback or suggestion? Click here.




ElementValue
Catalog42791
NameVENTA 1
Epoch Orbit8078
Epoch Day340.94655714
Epoch Year2018
RAAN37.9245
Inclination97.38
Eccentricity0.0011214
Argument of Perigee182.8203
Mean Anonmoly177.2972
Mean Motion15.22351281
Decay Rate1.088E-05
L11 42791U 17036AC 18340.94655714 .00001088 00000-0 50121-4 0 9997
L22 42791 097.3800 037.9245 0011214 182.8203 177.2972 15.22351281080783

Live tracking and technical data element details for VENTA 1 (NORAD 42791). VENTA 1 can be tracked NOW for your location showing map with azimuth and elevation plus other details from your city location.

Track the satellite on the map from your city or location and see movement details for azimuth, elevation, latitude, longitude, range, height, and movement on the map or in text.







IsCatalogInMostPopularTable: catalog: 42791, numindb: 138
Update: records affected: 1



GetName: 42791 VENTA 1

Hit Count: updated at: Thu, 13 Dec 2018 04:00:52 GMT